Location: Baumgarten
(49.0970°N, 12.7493°E)
Time: 01:32:51
(UTC+00:00)

ALOS 2 - Pass Details

Date: 05 July 2020
Orbit: 630 x 632 km, 97.9° (Epoch: 04 August)

Event Time Altitude Azimuth Distance (km) Brightness Sun altitude
Exits shadow 23:35:30 19° 242° (WSW) 1,509 4.2 -18.1°
Maximum altitude 23:36:52 22° 268° (W) 1,392 4.3 -18.1°
Drops below altitude 10° 23:40:18 10° 319° (NW) 2,024 5.8 -18.0°
Sets 23:42:57 0° 335° (NNW) 2,937 7.0 -17.9°
